Location: ???????
(55.5931°N, 39.3286°E)
Time: 02:54:31
(UTC+00:00)

Cosmos 1484 Rocket - Pass Details

Date: 14 April 2024
Orbit: 480 x 525 km, 97.6° (Epoch: 18 May)

Event Time Altitude Azimuth Distance (km) Brightness Sun altitude
Rises 01:25:41 0° 20° (NNE) 2,593 7.1 -7.8°
Reaches altitude 10° 01:27:56 10° 30° (NNE) 1,696 6.4 -7.6°
Maximum altitude 01:31:16 34° 97° (E) 830 4.4 -7.1°
Drops below altitude 10° 01:34:35 10° 164° (SSE) 1,677 5.2 -6.7°
Sets 01:36:44 0° 173° (S) 2,536 6.0 -6.5°
